{"data":{"norad_id":69797,"intl_designator":"1998-067YM","name":"ISS OBJECT YM","alt_names":[],"object_type":"PAYLOAD","status":"ACTIVE","operator":null,"country":"TBD","launch_date":"1998-11-20","launch_site_code":"TYMSC","launch_vehicle":null,"mission":null,"orbit_class":"UNKNOWN","rcs_meters":null,"size_class":null,"mass_kg":null,"dimensions":null,"purposes":[],"wikipedia_slug":null,"has_3d_model":false,"image_url":null,"decayed_at":null,"tle_current":{"epoch":"2026-09-19T04:39:14.581728Z","epoch_age_seconds":134515,"freshness":"FRESH","line1":"1 69797U 98067YM  26262.19391877  .00041425  00000+0  59015-3 0  9999","line2":"2 69797  51.6291 192.8112 0010700 163.0379 197.0972 15.55842534 12230","mean_motion":15.55842534,"eccentricity":0.00107,"inclination_deg":51.6291,"raan_deg":192.8112,"arg_perigee_deg":163.0379,"mean_anomaly_deg":197.0972,"bstar":0.00059015,"rev_number":1223,"period_min":92.554353575733,"perigee_km":392.45230181286,"apogee_km":406.95688282042,"semimajor_km":6777.8415923166,"source":"CELESTRAK","updated_at":"2026-09-20T09:00:25.117826Z"}}}